[[{"header":{"parameterUnit":"m.s-1","parameterCategory":1,"la1":30.2991,"la2":30.254,"lo1":-89.0895,"lo2":-89.0444,"dy":0.0017,"dx":0.0017,"nx":28,"ny":28,"refTime":"2024-12-21T03:00:00:Z","depth":0,"parameterNumber":2,"parameterNumberName":"U-component_of_WINDS"},"data":[0,0,0,0,0,0,0,0,0,0,0,0,0,0,0,0,0,0,0,0,0,0,0,0,0,0,0,0,0,0,0,0,0,0,0,0,0,0,0,0,0,0,0,0,0,0,0,0,0,0,0,0,0,0,0,0,0,0,1.4921,1.4921,0,1.4989,1.4989,1.499,1.5016,1.5015,1.5015,1.5015,1.5082,1.5084,1.5086,0,0,0,0,0,0,0,0,0,0,0,0,0,1.4812,1.4814,1.492,1.4921,1.4922,1.4988,1.4989,1.499,1.5016,1.5015,1.5015,1.5015,1.5082,1.5084,1.5086,0,0,0,0,0,0,0,0,0,0,0,0,0,1.4867,1.4814,1.492,1.4943,1.4946,1.4988,1.4989,1.4991,1.5016,1.5015,1.5015,1.5015,1.5081,1.5084,1.5087,1.5111,0,0,1.5096,1.5097,0,0,0,0,0,0,0,0,1.4864,1.4871,1.4939,1.4941,1.4944,1.4993,1.4976,1.5031,1.5016,1.4989,1.5015,1.5015,1.5053,1.5058,1.5071,1.5115,1.5117,1.5096,1.5098,1.5099,1.51,0,0,0,0,0,0,0,1.486,1.4868,1.4947,1.494,1.4943,1.4949,1.4957,1.4986,1.5022,1.4991,1.4993,1.5001,1.5054,1.5069,1.5073,1.5118,1.5096,1.5099,1.5101,1.5102,1.5187,1.5188,0,0,0,0,0,0,1.4853,1.4865,1.4945,1.4949,1.4903,1.4952,1.496,1.4978,1.5021,1.5028,1.5001,1.5002,1.5064,1.507,1.5076,1.5109,1.5099,1.5102,1.5104,1.5187,1.5187,1.5188,0,0,0,0,0,0,1.485,1.486,1.4942,1.4908,1.4919,1.4954,1.4974,1.4979,1.4994,1.5029,1.5035,1.5009,1.5064,1.5072,1.5103,1.5111,1.5103,1.5106,1.5186,1.5187,1.5188,1.5174,0,0,0,0,0,0,1.4847,1.4859,1.4868,1.4908,1.4921,1.4969,1.4974,1.4981,1.4999,1.5001,1.5038,1.5044,1.5064,1.5098,1.5106,1.5115,1.5108,1.5186,1.5187,1.5187,1.5173,1.5174,1.5174,0,0,0,0,0,1.4843,1.4861,1.4869,1.4878,1.4934,1.4969,1.4976,1.4999,1.4999,1.501,1.5033,1.5043,1.5109,1.5101,1.511,1.512,1.5185,1.5186,1.5187,1.5173,1.5174,1.5174,0,0,0,0,0,0,1.482,1.4866,1.4875,1.4906,1.4934,1.4973,1.4986,1.4998,1.5025,1.5026,1.5053,1.5061,1.509,1.5109,1.5099,1.5148,1.5148,1.5151,1.5134,1.5135,1.5135,1.513,1.5111,0,0,0,0,0,1.4818,1.4844,1.4883,1.4906,1.492,1.4951,1.4967,1.4983,1.5012,1.5023,1.5048,1.5076,1.5103,1.512,1.5147,1.5177,1.5186,1.5188,1.5188,1.5188,1.519,1.5209,1.5211,1.5191,1.5191,1.5191,0,0,1.4815,1.4844,1.4858,1.4903,1.4925,1.4951,1.496,1.4986,1.5006,1.5027,1.5058,1.5078,1.5111,1.5142,1.5157,1.5158,1.5198,1.519,1.519,1.5192,1.521,1.5212,1.5214,1.5192,1.5192,1.5192,0,0,1.4823,1.4847,1.487,1.4894,1.4929,1.495,1.4955,1.4994,1.5008,1.5041,1.5057,1.5081,1.5127,1.515,1.5167,1.5186,1.5197,1.5194,1.5195,1.5213,1.5215,1.5216,1.5223,1.5226,1.5196,1.5196,1.5196,0,1.4815,1.4854,1.488,1.4906,1.4926,1.4948,1.4971,1.4993,1.5034,1.5047,1.5048,1.5108,1.5131,1.5169,1.5174,1.5187,1.5194,1.519,1.5212,1.5214,1.5216,1.5223,1.5226,1.5196,1.5196,1.5196,1.5196,0,1.4843,1.487,1.4884,1.4926,1.4947,1.4972,1.5001,1.502,1.5034,1.5055,1.5089,1.5118,1.5152,1.5162,1.5175,1.5202,1.5202,1.5207,1.5208,1.5217,1.5224,1.5227,1.5195,1.5195,1.5195,1.5196,0,0,1.4836,1.4893,1.4898,1.4918,1.4959,1.4981,1.5007,1.5041,1.5057,1.5086,1.5108,1.5148,1.5154,1.5174,1.5191,1.5207,1.5221,1.5211,1.5212,1.5212,1.5253,1.5248,1.5251,1.5229,1.523,1.523,1.5251,0,1.4849,1.4898,1.4923,1.496,1.4986,1.5009,1.5032,1.506,1.5081,1.5106,1.5129,1.5157,1.5162,1.5175,1.5192,1.5216,1.523,1.5215,1.5251,1.5252,1.5241,1.5255,1.525,1.5267,1.5254,1.5254,1.5254,0,1.4871,1.4901,1.4941,1.4982,1.4994,1.5014,1.5048,1.5072,1.5105,1.5119,1.5143,1.516,1.5189,1.5189,1.5229,1.5219,1.5235,1.525,1.5251,1.5254,1.5253,1.5259,1.5273,1.5276,1.5259,1.5259,1.5258,0,1.4862,1.4913,1.4944,1.496,1.5008,1.5022,1.5042,1.5075,1.5094,1.5125,1.5138,1.517,1.5188,1.5213,1.5239,1.5236,1.5278,1.5279,1.529,1.529,1.5297,1.5296,1.5314,1.5308,1.5308,1.5308,1.5308,0,1.4874,1.4898,1.4941,1.496,1.4988,1.5017,1.5044,1.5066,1.5095,1.5119,1.5141,1.5163,1.5195,1.5222,1.5242,1.5273,1.5281,1.5293,1.5298,1.5291,1.529,1.5302,1.5301,1.5309,1.5309,1.5308,1.5308,0,1.4869,1.4899,1.4934,1.4977,1.4989,1.5007,1.5044,1.5064,1.5087,1.5117,1.5126,1.5161,1.5194,1.5222,1.5264,1.5278,1.531,1.5316,1.5299,1.5302,1.5311,1.531,1.5337,1.5343,1.5333,1.5333,1.5333,0,1.4875,1.4894,1.494,1.4958,1.4978,1.5007,1.5027,1.5057,1.5078,1.5118,1.5133,1.5167,1.5196,1.5247,1.5276,1.5309,1.5316,1.5324,1.5321,1.5314,1.5317,1.5315,1.5318,1.5323,1.5323,1.5323,1.5323,0,1.4882,1.4896,1.4925,1.496,1.4984,1.5013,1.5042,1.5056,1.5091,1.5114,1.5148,1.517,1.5215,1.5248,1.5285,1.5306,1.5321,1.5324,1.5329,1.5321,1.531,1.5317,1.5299,1.5323,1.5323,1.5323,1.5323,1.5323,1.4882,1.4901,1.4936,1.4969,1.4994,1.5022,1.5043,1.5069,1.5098,1.5137,1.5153,1.5188,1.5222,1.5273,1.5294,1.5322,1.5324,1.5331,1.5332,1.5333,1.5332,1.5307,1.5329,1.5329,1.5329,1.5329,1.5329,0,1.4891,1.4915,1.4945,1.4986,1.5011,1.5024,1.5058,1.5078,1.5109,1.514,1.5168,1.5208,1.5242,1.5275,1.531,1.5326,1.5334,1.5334,1.5333,1.5338,1.5328,1.532,1.5328,1.5328,1.5328,1.5328,1.5328,1.5328,1.4898,1.4931,1.4949,1.4995,1.502,1.5054,1.5072,1.5098,1.5123,1.5167,1.5195,1.5217,1.5249,1.5287,1.5319,1.5328,1.534,1.5339,1.5349,1.5339,1.5339,1.5338,1.5332,1.5341,1.5341,1.5358,1.5358,1.5358]},{"header":{"parameterUnit":"m.s-1","parameterCategory":1,"la1":30.2991,"la2":30.254,"lo1":-89.0895,"lo2":-89.0444,"dy":0.0017,"dx":0.0017,"nx":28,"ny":28,"refTime":"2024-12-21T03:00:00:Z","depth":0,"parameterNumber":3,"parameterNumberName":"V-component_of_WINDS"},"data":[0,0,0,0,0,0,0,0,0,0,0,0,0,0,0,0,0,0,0,0,0,0,0,0,0,0,0,0,0,0,0,0,0,0,0,0,0,0,0,0,0,0,0,0,0,0,0,0,0,0,0,0,0,0,0,0,0,0,-8.1162,-8.1164,0,-8.1296,-8.1297,-8.1299,-8.1207,-8.1203,-8.1198,-8.1194,-8.1324,-8.1332,-8.1339,0,0,0,0,0,0,0,0,0,0,0,0,0,-8.0823,-8.083,-8.1162,-8.1164,-8.1166,-8.1296,-8.1297,-8.1299,-8.1207,-8.1202,-8.1197,-8.1193,-8.1322,-8.1331,-8.1339,0,0,0,0,0,0,0,0,0,0,0,0,0,-8.0965,-8.0832,-8.1162,-8.1136,-8.1135,-8.1295,-8.1297,-8.13,-8.1208,-8.1202,-8.1196,-8.119,-8.1319,-8.133,-8.1341,-8.1532,0,0,-8.1374,-8.1379,0,0,0,0,0,0,0,0,-8.0957,-8.0977,-8.1138,-8.1138,-8.1137,-8.1228,-8.1225,-8.1377,-8.121,-8.118,-8.1194,-8.1187,-8.1297,-8.1309,-8.1348,-8.1538,-8.1544,-8.1375,-8.1382,-8.1386,-8.139,0,0,0,0,0,0,0,-8.0947,-8.0971,-8.1215,-8.114,-8.114,-8.1116,-8.1129,-8.1254,-8.1271,-8.1182,-8.1176,-8.1193,-8.1295,-8.1338,-8.135,-8.1546,-8.1375,-8.1385,-8.1391,-8.1396,-8.1902,-8.1908,0,0,0,0,0,0,-8.0941,-8.0964,-8.1211,-8.1219,-8.103,-8.1127,-8.1142,-8.1205,-8.127,-8.1274,-8.1199,-8.1189,-8.1322,-8.1337,-8.1354,-8.1585,-8.1386,-8.1397,-8.1403,-8.1895,-8.1903,-8.1911,0,0,0,0,0,0,-8.0934,-8.0964,-8.1205,-8.109,-8.1119,-8.1139,-8.1211,-8.1211,-8.1253,-8.1282,-8.1284,-8.1239,-8.1318,-8.1339,-8.149,-8.1588,-8.1402,-8.1412,-8.1887,-8.1898,-8.1907,-8.2045,0,0,0,0,0,0,-8.0924,-8.0962,-8.1036,-8.1092,-8.1125,-8.134,-8.1217,-8.1218,-8.1273,-8.1261,-8.132,-8.1324,-8.1314,-8.1474,-8.1501,-8.1599,-8.142,-8.1878,-8.1892,-8.1904,-8.2032,-8.2059,-8.2082,0,0,0,0,0,-8.0913,-8.1067,-8.104,-8.107,-8.1219,-8.1346,-8.1365,-8.1352,-8.1281,-8.1355,-8.1374,-8.1322,-8.1573,-8.149,-8.1519,-8.1623,-8.1872,-8.1888,-8.1903,-8.2021,-8.2054,-8.2082,0,0,0,0,0,0,-8.1019,-8.1074,-8.1044,-8.1222,-8.1281,-8.133,-8.1423,-8.1387,-8.1465,-8.145,-8.1429,-8.1443,-8.1602,-8.1627,-8.1534,-8.1813,-8.1711,-8.1733,-8.1791,-8.1822,-8.1847,-8.1837,-8.1429,0,0,0,0,0,-8.1064,-8.1165,-8.1206,-8.1359,-8.139,-8.1403,-8.1457,-8.1443,-8.1501,-8.1525,-8.1555,-8.1612,-8.1703,-8.1764,-8.1849,-8.2035,-8.2047,-8.2121,-8.2146,-8.2167,-8.2186,-8.2287,-8.2321,-8.1962,-8.1961,-8.1961,0,0,-8.1156,-8.1199,-8.1263,-8.1382,-8.1425,-8.1529,-8.1423,-8.1537,-8.1613,-8.1541,-8.1686,-8.1711,-8.1773,-8.1943,-8.2019,-8.1968,-8.2288,-8.2186,-8.2202,-8.2211,-8.2307,-8.2341,-8.2371,-8.1972,-8.197,-8.1969,0,0,-8.1377,-8.142,-8.1553,-8.16,-8.1668,-8.1675,-8.1708,-8.1764,-8.1778,-8.1924,-8.1873,-8.1962,-8.212,-8.2167,-8.2212,-8.2454,-8.2409,-8.2482,-8.2613,-8.2713,-8.2741,-8.2766,-8.2853,-8.2885,-8.2502,-8.2502,-8.2502,0,-8.1483,-8.1639,-8.1625,-8.1745,-8.1799,-8.1741,-8.1875,-8.192,-8.2012,-8.205,-8.1993,-8.2192,-8.2229,-8.241,-8.247,-8.2508,-8.2543,-8.2476,-8.2738,-8.2763,-8.2786,-8.2869,-8.2902,-8.251,-8.2509,-8.2509,-8.2508,0,-8.1766,-8.1876,-8.1974,-8.2069,-8.2133,-8.2259,-8.2264,-8.2331,-8.2311,-8.2324,-8.2474,-8.2518,-8.2612,-8.2654,-8.2634,-8.2833,-8.28,-8.2741,-8.2638,-8.2829,-8.2907,-8.2939,-8.2523,-8.252,-8.2517,-8.2515,0,0,-8.2057,-8.2144,-8.2181,-8.2224,-8.2296,-8.2379,-8.2502,-8.2598,-8.2656,-8.2722,-8.2824,-8.2961,-8.2908,-8.2959,-8.2944,-8.3031,-8.3222,-8.2962,-8.2963,-8.301,-8.3445,-8.3489,-8.3526,-8.3193,-8.3199,-8.3204,-8.344,0,-8.2284,-8.2502,-8.2494,-8.2697,-8.2798,-8.2746,-8.2853,-8.2908,-8.2924,-8.3011,-8.3027,-8.3125,-8.3047,-8.3078,-8.3162,-8.3182,-8.3309,-8.3164,-8.3288,-8.3292,-8.3275,-8.3567,-8.3613,-8.3834,-8.347,-8.3475,-8.3479,0,-8.2577,-8.2656,-8.287,-8.293,-8.2972,-8.3069,-8.3157,-8.3241,-8.3302,-8.3307,-8.3366,-8.3338,-8.3462,-8.3357,-8.3527,-8.3429,-8.3478,-8.3496,-8.3504,-8.3515,-8.3397,-8.3586,-8.3903,-8.3937,-8.3526,-8.3522,-8.3519,0,-8.2769,-8.2929,-8.3078,-8.3116,-8.3189,-8.3259,-8.3292,-8.3348,-8.3406,-8.3482,-8.352,-8.3608,-8.3657,-8.3725,-8.3722,-8.3645,-8.3895,-8.3788,-8.3902,-8.3903,-8.3957,-8.3954,-8.4288,-8.3989,-8.3988,-8.3987,-8.3987,0,-8.3023,-8.3156,-8.3166,-8.3258,-8.3406,-8.3395,-8.3541,-8.3567,-8.3617,-8.3712,-8.3671,-8.3761,-8.375,-8.384,-8.3838,-8.398,-8.4001,-8.4009,-8.4007,-8.4013,-8.4013,-8.4046,-8.4031,-8.3996,-8.3994,-8.3993,-8.3991,0,-8.3263,-8.3275,-8.3435,-8.3492,-8.3509,-8.3616,-8.3664,-8.3751,-8.3764,-8.3885,-8.3912,-8.3932,-8.4036,-8.404,-8.4158,-8.4156,-8.433,-8.431,-8.431,-8.4307,-8.4421,-8.441,-8.4788,-8.4837,-8.4506,-8.4509,-8.4511,0,-8.3425,-8.3527,-8.3596,-8.3659,-8.3697,-8.3797,-8.3858,-8.3851,-8.3915,-8.3995,-8.4072,-8.4173,-8.4253,-8.4421,-8.4445,-8.4536,-8.4518,-8.4644,-8.4531,-8.4535,-8.4521,-8.4516,-8.4526,-8.4666,-8.467,-8.4673,-8.4675,0,-8.3711,-8.3713,-8.3803,-8.3897,-8.3971,-8.4043,-8.411,-8.4163,-8.4164,-8.4238,-8.4346,-8.4409,-8.4532,-8.4632,-8.4721,-8.4752,-8.4715,-8.4711,-8.4742,-8.475,-8.4747,-8.4751,-8.4371,-8.4702,-8.47,-8.4698,-8.4696,-8.4695,-8.3917,-8.4006,-8.407,-8.4172,-8.4223,-8.4288,-8.4373,-8.4398,-8.4489,-8.459,-8.458,-8.47,-8.4759,-8.4875,-8.4915,-8.5007,-8.4963,-8.5008,-8.502,-8.5031,-8.5044,-8.4732,-8.5023,-8.5022,-8.5021,-8.5021,-8.502,0,-8.4202,-8.4242,-8.4336,-8.4433,-8.4514,-8.4474,-8.4547,-8.4617,-8.4724,-8.4784,-8.4865,-8.4989,-8.5087,-8.512,-8.5214,-8.5282,-8.5267,-8.5307,-8.5302,-8.5311,-8.5077,-8.5041,-8.5318,-8.5318,-8.5318,-8.5318,-8.5318,-8.5318,-8.436,-8.4509,-8.4519,-8.4693,-8.473,-8.485,-8.4895,-8.4954,-8.5002,-8.5144,-8.5227,-8.5248,-8.5298,-8.5396,-8.5484,-8.5491,-8.5527,-8.5575,-8.5575,-8.5357,-8.5327,-8.5298,-8.5264,-8.5583,-8.5584,-8.5801,-8.5803,-8.5804]}]]